sat.trackr.live / text

‹ back to catalog

STARLINK-3281

NORAD 50183 · 2021-125AD

PAYLOAD ACTIVE UNKNOWN

§ Identity

Operator
Country
US
Launch date
2021-12-18
Launch site
AFWTR
Launch vehicle
Mass (kg)
RCS (m²)

Purposes: comms

External: N2YO · Heavens-Above · Gunter

§ Orbital elements

Epoch: 2026-09-20T03:25:02.585856Z

Period
95.29 min
Inclination
53.1591°
Eccentricity
0.0002667
Mean motion
15.11138335 rev/d
Perigee alt
530.9 km
Apogee alt
534.6 km
Semi-major
6,910.9 km
B*
7.9692e-4
RAAN
94.7986°
Arg perigee
104.5890°
Mean anomaly
255.5398°
Rev number
26,601

§ Raw data

STARLINK-32811 50183U 21125AD  26263.14239104  .00013243  00000+0  79692-3 0  99992 50183  53.1591  94.7986 0002667 104.5890 255.5398 15.11138335266017

JSON: /api/v1/satellites/50183 · /tle

For live sub-satellite position, see the globe view (requires WebGL).

§ Visibility from observer

Set your observer location to see the next 7 days of passes ≥ 10°. The values pass through the URL so the page stays shareable.

No JS? Fill the form by hand. The geolocation button needs JavaScript.